Cloud_Cover
88 98 99 100 78 25 100 60 97 100 84 100 100 100 100 77 74 100 45 77 26 20 8 63 6 77 65 82 63 11 0 0 1 0 0 1 3 70 90 68 51 6 58
100 100 71 100 96 86 100 99 84 100 100 100 98 94 99 98 100 100 54 38 100 79 37 51 29 38 72 31 0 0 4 4 0 0 0 22 86 100 86 24 88 93 53
100 100 100 100 100 93 27 98 85 100 98 99 100 100 100 99 99 97 44 91 100 84 8 43 24 4 0 1 0 0 5 13 76 0 0 0 27 69 55 1 92 100 97
100 100 100 100 100 100 90 95 100 100 100 100 100 100 100 99 100 98 14 100 100 51 98 99 90 24 0 66 15 1 9 96 76 85 24 5 5 46 92 100 50 98 100
98 100 97 100 100 100 100 100 100 100 100 100 100 100 100 100 100 95 42 100 100 56 95 83 60 6 0 16 100 9 100 100 93 99 11 45 100 77 86 16 93 58 47
23 100 100 100 100 100 98 100 100 100 100 100 100 100 100 100 100 100 100 100 100 82 86 100 5 22 0 10 97 7 100 100 100 33 1 1 3 63 96 17 27 40 69
0 8 72 99 100 100 100 100 100 100 100 100 100 100 100 100 100 100 100 100 100 100 100 11 5 48 1 3 11 96 100 100 100 98 32 96 99 41 87 70 100 100 30
0 0 0 18 51 100 100 100 100 100 100 100 100 100 100 100 100 100 100 100 100 100 100 71 49 76 54 82 99 100 100 100 58 36 52 50 36 61 67 35 99 92 68
0 0 0 1 3 5 99 100 100 100 100 100 100 100 100 100 100 100 100 100 100 100 100 100 100 100 47 12 44 100 100 100 100 100 100 96 100 100 95 94 72 80 31
0 0 0 0 0 2 21 80 100 100 100 100 100 100 100 100 100 100 100 100 100 100 100 100 100 100 100 99 100 100 100 100 100 100 100 100 100 100 99 100 100 100 83
0 0 0 0 0 0 0 64 100 100 100 100 100 100 100 100 100 100 100 100 100 100 100 100 100 100 100 100 100 100 100 100 100 100 100 100 100 100 100 96 100 100 100
0 0 0 0 0 0 0 0 64 100 100 100 100 100 100 100 100 100 100 100 100 100 100 100 100 100 100 100 100 100 100 100 100 100 100 100 100 100 100 100 100 100 100
0 0 0 0 0 0 0 0 1 98 100 100 100 100 100 100 100 100 100 100 100 100 100 100 100 100 100 100 100 100 100 100 100 100 100 100 100 100 100 100 100 100 100
0 0 0 0 0 0 0 0 73 38 100 100 100 100 100 100 100 100 100 100 100 100 100 100 100 100 100 100 100 100 100 100 100 100 100 100 100 100 100 100 100 100 100
0 0 0 0 0 0 0 0 0 98 41 100 100 100 100 100 100 100 100 100 100 100 100 100 100 100 100 100 100 100 100 100 100 100 100 99 100 99 100 100 100 100 100
0 0 0 0 0 0 0 4 3 32 90 100 100 100 100 100 100 100 100 100 100 100 100 100 100 100 100 100 100 100 100 100 100 100 100 100 100 97 100 100 100 100 100
0 0 0 0 0 0 0 5 5 45 100 100 100 100 100 100 100 100 100 100 100 100 100 100 100 100 100 100 100 100 100 100 100 100 100 100 100 100 100 100 100 100 100
0 0 0 0 0 0 1 5 5 42 100 100 100 100 100 100 100 100 100 100 100 100 100 100 100 100 100 100 100 100 100 100 100 100 100 100 100 100 100 100 100 100 100
0 0 0 3 3 0 5 9 20 54 90 100 98 100 100 100 100 100 100 100 100 100 100 98 100 100 100 100 100 100 100 100 100 100 100 100 100 100 100 100 100 100 100
0 0 0 0 5 0 1 80 96 97 100 100 99 100 100 100 100 100 100 100 100 100 100 99 99 93 98 100 100 78 100 100 100 100 100 100 100 100 100 100 100 100 100
0 25 5 50 0 0 0 41 83 51 100 100 87 100 100 100 100 100 100 100 100 100 100 96 97 100 91 100 46 100 87 100 100 100 100 100 100 100 100 100 100 100 100
0 4 65 81 11 2 0 0 5 40 99 97 87 100 100 100 100 100 100 100 100 100 100 100 100 99 91 95 86 91 82 73 100 94 100 100 100 100 100 100 100 96 77
0 6 42 100 98 61 12 0 0 79 85 100 66 94 100 100 100 100 100 100 100 100 100 100 88 100 98 58 23 31 16 100 100 100 97 100 97 100 100 100 58 100 98
0 3 80 100 94 100 82 38 5 92 100 100 100 91 100 100 100 100 100 100 100 100 100 100 100 100 100 53 69 71 53 91 77 100 100 100 100 94 96 96 98 100 100
0 0 88 100 88 94 100 100 87 23 46 16 12 100 100 100 100 100 100 100 100 100 100 100 100 100 100 99 96 77 99 100 95 89 95 100 100 100 100 100 100 100 100
0 10 100 100 96 100 97 94 5 28 10 93 100 100 100 100 100 100 100 100 100 100 100 100 100 100 100 100 100 97 100 100 100 95 94 100 100 100 100 100 100 100 100